Terminal Aerodrome Forecast
Issued by NWS

Home | Current Version | Previous Version | Text Only | Print | Product List | Glossary On
Versions: 1 2 3 4 5 6 7 8 9 10 11 12 13
000
FTUS45 KABQ 252321
TAFFMN
TAF
KFMN 252321Z 2600/2624 28011G18KT P6SM SKC
     FM260200 32005KT P6SM FEW250
     FM261600 30010KT P6SM SCT250
     FM261900 29015KT P6SM SKC=

USA.gov is the U.S. government's official web portal to all federal, state and local government web resources and services.